DW2751 Weather Reports


Display with metric or nautical units.
time (UTC)temp
F
wind
direction
speed
MPH
gust
MPH
rain 1hr
in
rain 24hr
in
rain mn
in
humidity
%
barometer
mb
20181210054522 45 341 0.0 0.0 0.00 0.00 0.00 65 1025.6
20181210053033 46 341 0.0 0.0 0.00 0.00 0.00 64 1025.7
20181210051518 46 342 0.0 0.0 0.00 0.00 0.00 62 1025.8
20181210050025 47 341 0.0 0.0 0.00 0.00 0.00 61 1025.8
20181210044508 48 341 0.0 0.0 0.00 0.00 0.00 59 1025.8
20181210043008 49 341 0.0 0.0 0.00 0.00 0.00 58 1025.8
20181210041505 49 341 0.0 3.0 0.00 0.00 0.00 58 1025.8
20181210040002 49 341 0.0 0.0 0.00 0.00 0.00 59 1025.7
20181210034504 49 341 0.0 0.0 0.00 0.00 0.00 58 1025.6
20181210033002 50 342 0.0 2.0 0.00 0.00 0.00 57 1025.4
20181210031504 49 342 0.0 2.0 0.00 0.00 0.00 58 1025.4
20181210030307 49 341 0.0 0.0 0.00 0.00 0.00 59 1025.5
20181210024631 49 341 0.0 0.0 0.00 0.00 0.00 59 1025.5
20181210023245 51 341 0.0 0.0 0.00 0.00 0.00 57 1025.7
20181210021658 52 341 0.0 0.0 0.00 0.00 0.00 54 1025.8
20181210020209 52 341 0.0 0.0 0.00 0.00 0.00 53 1025.7
20181210014709 53 342 0.0 0.0 0.00 0.00 0.00 52 1025.6
20181210013213 54 342 0.0 0.0 0.00 0.00 0.00 51 1025.7
20181210011823 55 342 0.0 0.0 0.00 0.00 0.00 50 1025.6
20181210010132 55 341 0.0 0.0 0.00 0.00 0.00 48 1025.5
20181210004755 56 341 0.0 0.0 0.00 0.00 0.00 46 1025.4
20181210003150 57 341 0.0 0.0 0.00 0.00 0.00 45 1025.4
20181210001708 59 341 0.0 0.0 0.00 0.00 0.00 43 1025.5
20181210000205 59 342 0.0 0.0 0.00 0.00 0.00 42 1025.5
20181209234747 60 341 0.0 0.0 0.00 0.00 0.00 40 1025.6
20181209233148 60 342 0.0 0.0 0.00 0.00 0.00 40 1025.6
20181209231640 60 341 0.0 0.0 0.00 0.00 0.00 39 1025.8
20181209230204 60 341 0.0 0.0 0.00 0.00 0.00 39 1025.8
20181209224709 61 341 0.0 1.0 0.00 0.00 0.00 38 1025.8
20181209223159 61 341 0.0 4.0 0.00 0.00 0.00 38 1025.8
20181209221605 62 341 0.0 3.0 0.00 0.00 0.00 37 1025.9
20181209220200 61 341 1.0 5.0 0.00 0.00 0.00 38 1026.1
20181209214841 61 341 1.0 6.0 0.00 0.00 0.00 39 1026.3
20181209213105 61 342 1.0 4.0 0.00 0.00 0.00 38 1026.4
20181209211612 60 341 0.0 2.0 0.00 0.00 0.00 40 1026.6
20181209210126 61 341 0.0 5.0 0.00 0.00 0.00 40 1026.9
20181209204603 60 341 0.0 4.0 0.00 0.00 0.00 40 1027.0
20181209203120 60 341 0.0 4.0 0.00 0.00 0.00 40 1027.1
20181209201615 60 341 0.0 3.0 0.00 0.00 0.00 41 1027.5
20181209200111 59 341 0.0 5.0 0.00 0.00 0.00 42 1027.8
20181209194651 59 341 0.0 1.0 0.00 0.00 0.00 43 1028.2
20181209193043 58 342 0.0 2.0 0.00 0.00 0.00 44 1028.6
20181209191610 57 342 0.0 3.0 0.00 0.00 0.00 45 1028.8
20181209190033 56 341 0.0 0.0 0.00 0.00 0.00 47 1029.1
20181209184522 55 342 0.0 0.0 0.00 0.00 0.00 50 1029.5
20181209183031 54 341 0.0 1.0 0.00 0.00 0.00 51 1029.8
20181209181537 52 341 0.0 0.0 0.00 0.00 0.00 57 1029.9
20181209180010 52 341 0.0 0.0 0.00 0.00 0.00 61 1030.1
20181209174504 51 342 0.0 0.0 0.00 0.00 0.00 64 1030.2
20181209173307 51 341 0.0 0.0 0.00 0.00 0.00 65 1030.2
20181209171651 50 341 0.0 0.0 0.00 0.00 0.00 66 1030.3
20181209170141 48 342 0.0 0.0 0.00 0.00 0.00 72 1030.4
20181209164653 46 341 0.0 0.0 0.00 0.00 0.00 78 1030.1
20181209163118 44 341 0.0 0.0 0.00 0.00 0.00 78 1030.1
20181209161559 43 342 0.0 0.0 0.00 0.00 0.00 81 1030.0
20181209160059 42 342 0.0 0.0 0.00 0.00 0.00 82 1029.8
20181209154607 42 342 0.0 0.0 0.00 0.00 0.00 83 1029.6
20181209153053 41 342 0.0 0.0 0.00 0.00 0.00 85 1029.6
20181209151538 39 341 0.0 0.0 0.00 0.00 0.00 85 1029.3
20181209150047 39 341 0.0 3.0 0.00 0.00 0.00 86 1029.2
20181209144527 38 342 0.0 0.0 0.00 0.00 0.00 85 1029.1
20181209143042 39 342 0.0 0.0 0.00 0.00 0.00 85 1029.0
20181209141532 40 341 0.0 0.0 0.00 0.00 0.00 86 1029.0
20181209140023 39 341 0.0 0.0 0.00 0.00 0.00 86 1028.8
20181209134604 38 341 0.0 0.0 0.00 0.00 0.00 85 1028.6
20181209133022 39 341 0.0 0.0 0.00 0.00 0.00 86 1028.4
20181209131525 39 341 0.0 0.0 0.00 0.00 0.00 85 1028.5
20181209130013 39 341 0.0 0.0 0.00 0.00 0.00 84 1028.2
20181209124643 39 341 0.0 0.0 0.00 0.00 0.00 84 1028.1
20181209123124 40 341 0.0 0.0 0.00 0.00 0.00 84 1028.1
20181209121637 39 341 0.0 0.0 0.00 0.00 0.00 83 1028.0
20181209120243 40 342 0.0 0.0 0.00 0.00 0.00 84 1028.0
20181209114634 40 341 0.0 0.0 0.00 0.00 0.00 83 1027.8
20181209113142 40 341 0.0 0.0 0.00 0.00 0.00 83 1027.8
20181209111614 40 342 0.0 0.0 0.00 0.00 0.00 82 1027.8
20181209110139 40 341 0.0 0.0 0.00 0.00 0.00 83 1027.7
20181209104632 41 341 0.0 0.0 0.00 0.00 0.00 82 1027.6
20181209103126 41 342 0.0 0.0 0.00 0.00 0.00 83 1027.7
20181209101604 41 342 0.0 0.0 0.00 0.00 0.00 82 1027.7
20181209100142 41 342 0.0 0.0 0.00 0.00 0.00 82 1027.7
20181209094709 41 341 0.0 0.0 0.00 0.00 0.00 82 1027.5
20181209093115 41 341 0.0 0.0 0.00 0.00 0.00 81 1027.5
20181209091656 41 342 0.0 0.0 0.00 0.00 0.00 81 1027.4
20181209090105 42 342 0.0 0.0 0.00 0.00 0.00 81 1027.4
20181209084636 42 342 0.0 0.0 0.00 0.00 0.00 81 1027.2
20181209083150 42 342 0.0 0.0 0.00 0.00 0.00 80 1027.2
20181209081610 43 341 0.0 0.0 0.00 0.00 0.00 79 1027.2
20181209080044 43 342 0.0 0.0 0.00 0.00 0.00 78 1027.3
20181209074637 44 341 0.0 0.0 0.00 0.00 0.00 77 1027.3
20181209073124 45 341 0.0 0.0 0.00 0.00 0.00 76 1027.4
20181209071544 46 341 0.0 0.0 0.00 0.00 0.00 75 1027.4
20181209070043 45 341 0.0 0.0 0.00 0.00 0.00 76 1027.4
20181209064542 45 341 0.0 0.0 0.00 0.00 0.00 76 1027.4
20181209063038 46 341 0.0 0.0 0.00 0.00 0.00 75 1027.4
20181209061536 47 341 0.0 0.0 0.00 0.00 0.00 73 1027.4
20181209060051 47 341 0.0 0.0 0.00 0.00 0.00 74 1027.2